K3ZED-2 Weather Reports


Display with metric or nautical units.
time (UTC)temp
F
wind
direction
speed
MPH
gust
MPH
rain 1hr
in
rain 24hr
in
rain mn
in
humidity
%
barometer
mb
20260902003017 74 75 0.0 26.0 0.03 0.03 0.03 84 1014.9
20260902001515 80 330 9.0 22.0 0.00 0.00 0.00 75 1014.8
20260902000023 82 221 0.0 3.0 0.00 0.00 0.00 80 1013.1
20260901234514 82 233 0.0 5.0 0.00 0.00 0.00 81 1012.6
20260901233012 83 199 0.0 0.0 0.00 0.00 0.00 80 1013.0
20260901231510 84 191 0.0 2.0 0.00 0.00 0.00 81 1013.4
20260901230024 85 123 0.0 0.0 0.00 0.00 0.00 79 1013.5
20260901224509 85 206 0.0 0.0 0.00 0.00 0.00 78 1013.4
20260901223009 86 224 0.0 0.0 0.00 0.00 0.00 76 1013.5
20260901221508 87 229 0.0 2.0 0.00 0.00 0.00 75 1013.4
20260901220009 89 235 0.0 1.0 0.00 0.00 0.00 71 1013.3
20260901214506 90 239 0.0 4.0 0.00 0.00 0.00 71 1013.5
20260901213014 90 228 1.0 7.0 0.00 0.00 0.00 70 1013.6
20260901211501 90 251 0.0 4.0 0.00 0.00 0.00 70 1013.6
20260901210100 90 243 0.0 1.0 0.00 0.00 0.00 68 1013.7
20260901204558 89 229 0.0 9.0 0.00 0.00 0.00 72 1013.9
20260901203102 88 239 0.0 4.0 0.00 0.00 0.00 73 1014.0
20260901201555 88 265 0.0 3.0 0.00 0.00 0.00 72 1014.1
20260901200056 89 259 0.0 15.0 0.00 0.00 0.00 70 1014.2
20260901194553 90 271 0.0 5.0 0.00 0.00 0.00 71 1014.3
20260901193059 90 234 1.0 8.0 0.00 0.00 0.00 71 1014.5
20260901191549 89 221 1.0 5.0 0.00 0.00 0.00 70 1014.6
20260901190047 89 222 0.0 8.0 0.00 0.00 0.00 70 1014.6
20260901184544 88 214 1.0 7.0 0.00 0.00 0.00 70 1014.9
20260901183045 88 221 0.0 6.0 0.00 0.00 0.00 71 1014.9
20260901181643 89 262 0.0 5.0 0.00 0.00 0.00 70 1014.9
20260901180039 88 239 0.0 5.0 0.00 0.00 0.00 71 1014.9
20260901174537 88 285 0.0 5.0 0.00 0.00 0.00 74 1015.1
20260901173035 87 218 0.0 3.0 0.00 0.00 0.00 75 1015.0
20260901171532 86 246 1.0 6.0 0.00 0.00 0.00 76 1015.3
20260901170028 84 214 0.0 2.0 0.00 0.00 0.00 79 1015.4
20260901164525 83 237 0.0 2.0 0.00 0.00 0.00 80 1015.8
20260901163023 82 244 0.0 1.0 0.00 0.00 0.00 80 1016.0
20260901161523 82 235 0.0 2.0 0.00 0.00 0.00 80 1016.0
20260901160023 82 224 0.0 4.0 0.00 0.00 0.00 80 1016.1
20260901154521 83 245 0.0 0.0 0.00 0.00 0.00 78 1016.1
20260901153022 83 254 0.0 4.0 0.00 0.00 0.00 77 1016.1
20260901151519 84 260 1.0 4.0 0.00 0.00 0.00 76 1016.1
20260901150016 83 269 0.0 4.0 0.00 0.00 0.00 76 1016.2
20260901144513 82 293 0.0 3.0 0.00 0.00 0.00 80 1016.3
20260901143009 80 241 1.0 3.0 0.00 0.00 0.00 81 1016.3
20260901141504 79 236 0.0 3.0 0.00 0.00 0.00 84 1016.3
20260901140000 77 269 0.0 3.0 0.00 0.00 0.00 88 1016.6
20260901134613 76 247 0.0 1.0 0.00 0.00 0.00 88 1016.3
20260901133058 76 222 0.0 2.0 0.00 0.00 0.00 88 1016.3
20260901131602 76 230 0.0 2.0 0.00 0.00 0.00 89 1016.3
20260901130054 76 242 0.0 1.0 0.00 0.00 0.00 91 1016.4
20260901124551 75 247 0.0 4.0 0.00 0.00 0.00 93 1016.7
20260901123048 74 244 0.0 3.0 0.00 0.00 0.00 95 1016.6
20260901121547 74 220 0.0 4.0 0.00 0.00 0.00 95 1016.6
20260901120044 73 244 0.0 1.0 0.00 0.00 0.00 95 1016.7
20260901114540 72 207 0.0 0.0 0.00 0.00 0.00 96 1017.0
20260901113032 71 207 0.0 0.0 0.00 0.00 0.00 96 1016.7
20260901111529 70 208 0.0 0.0 0.00 0.00 0.00 95 1016.6
20260901110032 70 208 0.0 0.0 0.00 0.00 0.00 95 1016.8
20260901104531 70 208 0.0 0.0 0.00 0.00 0.00 95 1016.5
20260901103027 70 208 0.0 0.0 0.00 0.00 0.00 95 1016.6
20260901101526 70 208 0.0 0.0 0.00 0.00 0.00 95 1016.4
20260901100026 70 208 0.0 0.0 0.00 0.00 0.00 94 1016.4
20260901094528 70 208 0.0 0.0 0.00 0.01 0.00 94 1016.4
20260901093024 70 208 0.0 0.0 0.00 0.01 0.00 94 1016.5
20260901091523 70 208 0.0 0.0 0.00 0.01 0.00 94 1016.6
20260901090017 70 208 0.0 0.0 0.00 0.01 0.00 94 1016.7
20260901084515 70 208 0.0 0.0 0.00 0.01 0.00 94 1016.8